Flag for Brazil Weather past 2 weeks in Cuiabá, Mato Grosso, Brazil

Now
88 °F

Sunny.


Feels Like: 88 °F
Forecast: 71 / 88 °F
Wind: 17 mph from North

Location: Cuiaba Aeroporto

Current Time: Jul 23, 2014 at 11:09:34 AM

Latest Report: Jul 23, 2014 at 10:00 AM


Visibility: 10 mi

Pressure: 29.98 "Hg

Humidity: 40%

Dew point: 61 °F

Location of CuiabáLocation

Historic Weather in Cuiabá — Graph

°F

Cuiabá temperature yesterday

Maximum temperature yesterday: 93 °F (at 1:00 PM)
Minimum temperature yesterday: 68 °F (at 5:00 AM)
Average temperature yesterday: 78 °F

Past Weeks' High & Low Weather Summary

 TemperatureHumidityPressure
High95 °F (Jul 13, 2:00 PM)100% (Jul 11, 7:00 AM)30.21 "Hg (Jul 11, 7:00 AM)
Low63 °F (Jul 12, 5:00 AM)20% (Jul 13, 2:00 PM)29.89 "Hg (Jul 21, 2:00 PM)
Average75 °F67%30.04 "Hg
* Reported Jul 8 9:00 AM — Jul 23 9:00 AM, Cuiabá, Weather by CustomWeather, © 2014

Note: Actual official high and low records may vary slightly from our data, if they occured in-between our weather recording intervals... More about our weather records

Advertising

Cuiabá weather history for previous 24 hours

 ConditionsComfort  
Time TempWeatherWind HumidityBarometerVisibility
9:00 AM
Jul 23
84 °FSunny.12 mph48%29.98 "Hg10 mi
8:00 AM77 °FSunny.9 mph65%29.98 "Hg10 mi
7:00 AM75 °FSunny.9 mph65%29.98 "Hg10 mi
6:00 AM75 °FClear.6 mph69%29.95 "Hg10 mi
5:00 AM77 °FPassing clouds.7 mph61%29.92 "HgN/A
4:00 AM79 °FPassing clouds.8 mph58%29.89 "HgN/A
2:00 AM77 °FPassing clouds.5 mph61%29.92 "HgN/A
1:00 AM81 °FPassing clouds.12 mph51%29.92 "HgN/A
12:00 AM82 °FPassing clouds.10 mph48%29.92 "HgN/A
11:00 PM
Jul 22
81 °FPassing clouds.8 mph51%29.92 "HgN/A
10:00 PM77 °FPassing clouds.3 mph61%29.92 "HgN/A
9:00 PM82 °FPassing clouds.3 mph48%29.92 "HgN/A
8:00 PM82 °FPassing clouds.7 mph48%29.89 "HgN/A
1:00 PM93 °FScattered clouds.13 mph39%29.92 "HgN/A
12:00 PM91 °FScattered clouds.17 mph38%29.95 "HgN/A
11:00 AM91 °FSunny.22 mph34%29.95 "Hg10 mi
Weather by CustomWeather, © 2014

See weather overviewHow to use our weather pages